SL-16 DEB, 22333

Orbit data source: Space-Track

SL-16 DEB, 22333 is space debris in LEO originally from a launch on Fri, 25 Dec 1992 UTC launched from the Tyuratam Missile And Space Complex (TTMTR). Debris objects in space refer to the collection of defunct objects orbiting the Earth. Examples of debris include non-operational satellites, rocket bodies, and fragments generated from explosions, collisions, or faulty payload assembly.

Loading next visibility...
Identifier
22333, 1992-093W
Orbit
LEO
Country
Flag of CISCIS
Related business
Manufacturer
Unknown
Mission
Spacecraft
Bus & Motor
Unknown
Mass
Unknown
Launch date (UTC)
1992-12-25 (33 years ago)
Launch vehicle
Unknown
Launch site
Tyuratam Missile And Space Complex (TTMTR)
Object type
Payload
Rocket body
Debris
Shape & HBR
Unknown shape, 0.2 m
Radar Cross Section
Medium (>0.1 m² and <1 m²)

Expand to show TLE details & history
Last TLE update: 14 hours ago

TLE from 14 hours ago
0 SL-16 DEB
1 22333U 92093W   25349.71369542  .00000756  00000-0  20836-3 0  9996
2 22333  71.0026 122.4515 0121993 146.4660 214.4279 14.45921942713543
Epoch: 2025-12-15T17:07Z
TLE epoch observation values (Epoch: 2025-12-15T17:07:43.284Z)
Latitude
-0.00009°
Longitude
140.91282°
Altitude
813.396 km
Speed
7.409 km/s
True Right ascension
08h 09m 48s
True Declination
0° 00' 00"
Sunlit
Object was in full shadow at epoch
Visualization orbit readout
Latitude
Unknown
Longitude
Unknown
Altitude
Unknown
Speed
Unknown
Apparent Right ascension
Unknown
Apparent Declination
Unknown
Sunlit
N/A
Visualization observer readout
Local Sidereal Time
06:16:29
Azimuth
Unknown
Elevation
Unknown
Doppler factor
Unknown
Orbital elements
Apogee altitude
823.691 km
Perigee altitude
650.095 km
Semi-major axis
7,115.03 km
Eccentricity
0.0122
Inclination
71.0026°
RAAN
122.4515°
Arg. of periapsis
146.466°
True anomaly
213.6474°
Mean anomaly
214.4279°
Eccentric anomaly
214.03667°
Mean motion
3.61641 °/min
Orbital period
99.55 mins
BSTAR
0.00020836
Loading maneuver chart data...
Computing Atmospheric mass density...
Loading historical data...
Loading historical data...
Loading historical data...
Loading historical data...
Loading historical data...
Loading historical data...
Loading historical data...

Documentation

Showing up to 5 results
|